| time (UTC) | temp C | wind direction | speed KPH | gust KPH | rain 1hr cm | rain 24hr cm | rain mn cm | humidity % | barometer mb |
| 20260507094738 | 8 | 96 | 1.6 | 9.7 | 0.00 | 0.00 | 0.00 | 39 | 1013.1 |
| 20260507091735 | 7 | 113 | 1.6 | 9.7 | 0.00 | 0.00 | 0.00 | 51 | 1013.2 |
| 20260507084732 | 6 | 183 | 1.6 | 6.4 | 0.00 | 0.00 | 0.00 | 60 | 1013.7 |
| 20260507081735 | 5 | 181 | 1.6 | 8.0 | 0.00 | 0.00 | 0.00 | 69 | 1014.1 |
| 20260507074729 | 5 | 224 | 0.0 | 1.6 | 0.00 | 0.00 | 0.00 | 71 | 1013.7 |
| 20260507071739 | 5 | 230 | 0.0 | 4.8 | 0.00 | 0.00 | 0.00 | 70 | 1013.7 |
| 20260507064733 | 5 | 231 | 0.0 | 3.2 | 0.00 | 0.00 | 0.00 | 73 | 1013.5 |
| 20260507061732 | 5 | 288 | 8.0 | 11.3 | 0.00 | 0.00 | 0.00 | 73 | 1013.0 |
| 20260507054732 | 5 | 288 | 3.2 | 16.1 | 0.00 | 0.00 | 0.00 | 71 | 1013.0 |
| 20260507051741 | 4 | 202 | 0.0 | 6.4 | 0.00 | 0.00 | 0.00 | 71 | 1012.7 |
| 20260507044727 | 3 | 200 | 0.0 | 4.8 | 0.00 | 0.00 | 0.00 | 71 | 1012.7 |
| 20260507041730 | 2 | 201 | 1.6 | 4.8 | 0.00 | 0.00 | 0.00 | 73 | 1012.7 |
| 20260507034737 | 1 | 201 | 1.6 | 6.4 | 0.00 | 0.00 | 0.00 | 78 | 1012.5 |
| 20260507031726 | 0 | 201 | 3.2 | 6.4 | 0.00 | 0.00 | 0.00 | 83 | 1012.2 |
| 20260507024735 | 0 | 201 | 0.0 | 0.0 | 0.00 | 0.00 | 0.00 | 84 | 1012.1 |
| 20260507021740 | -1 | 201 | 0.0 | 0.0 | 0.00 | 0.00 | 0.00 | 82 | 1012.1 |
| 20260507014721 | 0 | 201 | 0.0 | 1.6 | 0.00 | 0.00 | 0.00 | 81 | 1012.1 |
| 20260507011723 | 0 | 201 | 0.0 | 4.8 | 0.00 | 0.00 | 0.00 | 80 | 1012.1 |
| 20260507004739 | 0 | 201 | 0.0 | 1.6 | 0.00 | 0.00 | 0.00 | 79 | 1011.7 |
| 20260507001734 | 0 | 201 | 1.6 | 4.8 | 0.00 | 0.00 | 0.00 | 79 | 1011.9 |
| 20260506234736 | 0 | 201 | 1.6 | 3.2 | 0.00 | 0.00 | 0.00 | 78 | 1011.7 |
| 20260506231736 | 1 | 201 | 0.0 | 1.6 | 0.00 | 0.00 | 0.00 | 76 | 1011.6 |
| 20260506224738 | 1 | 201 | 0.0 | 0.0 | 0.00 | 0.00 | 0.00 | 74 | 1011.5 |
| 20260506221736 | 2 | 201 | 0.0 | 0.0 | 0.00 | 0.00 | 0.00 | 72 | 1011.2 |
| 20260506214727 | 3 | 201 | 0.0 | 3.2 | 0.00 | 0.00 | 0.00 | 69 | 1011.1 |
| 20260506211728 | 3 | 201 | 1.6 | 3.2 | 0.00 | 0.00 | 0.00 | 66 | 1011.0 |
| 20260506204730 | 5 | 201 | 0.0 | 4.8 | 0.00 | 0.00 | 0.00 | 63 | 1011.0 |
| 20260506201723 | 5 | 232 | 1.6 | 9.7 | 0.00 | 0.00 | 0.00 | 59 | 1010.9 |
| 20260506194737 | 5 | 219 | 0.0 | 8.0 | 0.00 | 0.00 | 0.00 | 62 | 1010.6 |
| 20260506191732 | 5 | 226 | 1.6 | 8.0 | 0.00 | 0.00 | 0.00 | 65 | 1010.6 |
| 20260506184728 | 5 | 247 | 0.0 | 8.0 | 0.00 | 0.00 | 0.00 | 62 | 1010.6 |
| 20260506181730 | 6 | 245 | 1.6 | 4.8 | 0.00 | 0.00 | 0.00 | 56 | 1010.2 |
| 20260506174730 | 7 | 249 | 3.2 | 8.0 | 0.00 | 0.00 | 0.00 | 55 | 1010.1 |
| 20260506171734 | 7 | 269 | 4.8 | 19.3 | 0.00 | 0.00 | 0.00 | 52 | 1009.9 |
| 20260506164736 | 7 | 210 | 4.8 | 14.5 | 0.00 | 0.00 | 0.00 | 53 | 1009.6 |
| 20260506161733 | 7 | 274 | 9.7 | 17.7 | 0.00 | 0.00 | 0.00 | 53 | 1009.5 |
| 20260506154740 | 8 | 258 | 4.8 | 9.7 | 0.00 | 0.00 | 0.00 | 52 | 1009.3 |
| 20260506151740 | 7 | 264 | 8.0 | 25.7 | 0.00 | 0.00 | 0.00 | 52 | 1009.1 |
| 20260506144727 | 8 | 250 | 4.8 | 20.9 | 0.00 | 0.00 | 0.00 | 51 | 1009.0 |
| 20260506141732 | 7 | 212 | 4.8 | 25.7 | 0.00 | 0.00 | 0.00 | 52 | 1009.0 |
| 20260506134733 | 7 | 200 | 6.4 | 17.7 | 0.00 | 0.00 | 0.00 | 51 | 1009.0 |
| 20260506131736 | 7 | 188 | 6.4 | 19.3 | 0.00 | 0.00 | 0.00 | 51 | 1008.8 |
| 20260506124720 | 7 | 258 | 6.4 | 17.7 | 0.00 | 0.00 | 0.00 | 48 | 1008.5 |
| 20260506121735 | 7 | 240 | 8.0 | 24.1 | 0.00 | 0.00 | 0.00 | 50 | 1008.6 |
| 20260506114739 | 6 | 265 | 6.4 | 19.3 | 0.00 | 0.00 | 0.00 | 54 | 1008.5 |
| 20260506111732 | 6 | 257 | 9.7 | 25.7 | 0.00 | 0.00 | 0.00 | 58 | 1008.0 |
| 20260506104728 | 5 | 245 | 11.3 | 27.4 | 0.00 | 0.00 | 0.00 | 59 | 1007.9 |
| 20260506101727 | 5 | 253 | 6.4 | 19.3 | 0.00 | 0.00 | 0.00 | 60 | 1007.5 |